Tracking 25710 objects as of 7-Jul-2022
HD Live streaming from Space Station
objects crossing your sky now

FENGYUN 1C DEB

Track FENGYUN 1C DEB now!
10-day predictions


NORAD ID: 30575
Int'l Code: 1999-025ALR
Perigee: 752.9 km
Apogee: 840.3 km
Inclination: 99.2 °
Period: 100.7 minutes
Semi major axis: 7167 km
RCS: 0.029 m2 (small)
Launch date: May 10, 1999
Source: People's Republic of China (PRC)
Launch site: Taiyaun Space Center, China (TSC)

Note: This is SATELLITE DEBRIS
aabbcc
Your satellite tracking list
Your tracking list is empty




NASA's NSSDC Master Catalog

Two Line Element Set (TLE):
1 30575U 99025ALR 22187.54263737  .00000847  00000-0  33618-3 0  9995
2 30575  99.2438 178.6521 0060938 285.7672 199.5943 14.30684360802184
Source of the keplerian elements: AFSPC